• In Belarus
  • List of Countries
  • For 7 days
  • Water Temperature
  • Weather Map
  • Weather Widgets
  • user-avatar
    Login

    Hourly Weather Mohovo

    Today, 1 June, Monday

    Time Temperature Precipitation Wind Pressure Humidity
    00:00 +7°C° 0 mm 2 mps 747 mmHg 82%
    01:00 +7°C° 0 mm 2 mps 747 mmHg 83%
    02:00 +6°C° 0 mm 2 mps 747 mmHg 84%
    03:00 +6°C° 0 mm 2 mps 747 mmHg 85%
    04:00 +5°C° 0 mm 3 mps 748 mmHg 80%
    05:00 +7°C° 0 mm 3 mps 748 mmHg 75%
    06:00 +8°C° 0 mm 2 mps 748 mmHg 71%
    07:00 +10°C° 0 mm 3 mps 748 mmHg 65%
    08:00 +11°C° 0 mm 4 mps 748 mmHg 58%
    09:00 +12°C° 0 mm 4 mps 748 mmHg 52%
    10:00 +13°C° 0 mm 4 mps 749 mmHg 49%
    11:00 +14°C° 0 mm 4 mps 749 mmHg 46%
    12:00 +15°C° 0 mm 4 mps 749 mmHg 44%
    13:00 +15°C° 0 mm 4 mps 749 mmHg 44%
    14:00 +16°C° 0 mm 3 mps 750 mmHg 45%
    15:00 +17°C° 0 mm 3 mps 750 mmHg 45%
    16:00 +16°C° 0 mm 2 mps 750 mmHg 48%
    17:00 +16°C° 0 mm 1 mps 750 mmHg 51%
    18:00 +16°C° 0 mm 1 mps 750 mmHg 54%
    19:00 +14°C° 0 mm 1 mps 750 mmHg 59%
    20:00 +13°C° 0 mm 1 mps 749 mmHg 63%
    21:00 +12°C° 0 mm 1 mps 749 mmHg 67%
    22:00 +11°C° 0.1 mm 1 mps 749 mmHg 73%
    23:00 +11°C° 0.1 mm 1 mps 749 mmHg 79%

    Tomorrow, 2 June, Tuesday

    Time Temperature Precipitation Wind Pressure Humidity
    00:00 +9°C° 0.1 mm 2 mps 749 mmHg 85%
    01:00 +9°C° 0.1 mm 1 mps 748 mmHg 88%
    02:00 +9°C° 0.1 mm 1 mps 748 mmHg 90%
    03:00 +9°C° 0.1 mm 1 mps 747 mmHg 93%
    04:00 +8°C° 0.7 mm 2 mps 747 mmHg 94%
    05:00 +8°C° 0.7 mm 2 mps 746 mmHg 95%
    06:00 +8°C° 0.7 mm 2 mps 746 mmHg 96%
    07:00 +8°C° 0.5 mm 2 mps 746 mmHg 95%
    08:00 +8°C° 0.5 mm 2 mps 745 mmHg 94%
    09:00 +9°C° 0.5 mm 2 mps 745 mmHg 93%
    10:00 +9°C° 0.4 mm 2 mps 745 mmHg 91%
    11:00 +9°C° 0.4 mm 2 mps 746 mmHg 89%
    12:00 +11°C° 0.4 mm 1 mps 746 mmHg 87%
    13:00 +11°C° 0.5 mm 1 mps 746 mmHg 89%
    14:00 +10°C° 0.5 mm 2 mps 746 mmHg 91%
    15:00 +9°C° 0.5 mm 2 mps 747 mmHg 92%
    16:00 +9°C° 0.2 mm 2 mps 747 mmHg 93%
    17:00 +9°C° 0.2 mm 3 mps 748 mmHg 93%
    18:00 +8°C° 0.2 mm 4 mps 748 mmHg 94%
    19:00 +7°C° 0.4 mm 4 mps 748 mmHg 94%
    20:00 +7°C° 0.4 mm 4 mps 749 mmHg 94%
    21:00 +6°C° 0.4 mm 4 mps 749 mmHg 94%
    22:00 +7°C° 0.4 mm 3 mps 749 mmHg 94%
    23:00 +7°C° 0.4 mm 2 mps 749 mmHg 95%

    Day after tomorrow, 3 June, Wednesday

    Time Temperature Precipitation Wind Pressure Humidity
    00:00 +7°C° 0.4 mm 2 mps 750 mmHg 95%
    01:00 +6°C° 0 mm 2 mps 750 mmHg 95%
    02:00 +5°C° 0 mm 2 mps 750 mmHg 96%
    03:00 +4°C° 0 mm 2 mps 750 mmHg 96%
    04:00 +5°C° 0 mm 2 mps 750 mmHg 94%
    05:00 +6°C° 0 mm 2 mps 751 mmHg 92%
    06:00 +6°C° 0 mm 2 mps 751 mmHg 90%
    07:00 +8°C° 0 mm 2 mps 751 mmHg 81%
    08:00 +10°C° 0 mm 2 mps 751 mmHg 72%
    09:00 +12°C° 0 mm 2 mps 751 mmHg 64%
    10:00 +13°C° 0.1 mm 2 mps 751 mmHg 58%
    11:00 +14°C° 0.1 mm 2 mps 751 mmHg 53%
    12:00 +14°C° 0.1 mm 2 mps 751 mmHg 48%
    13:00 +14°C° 0.2 mm 2 mps 750 mmHg 49%
    14:00 +14°C° 0.2 mm 2 mps 750 mmHg 50%
    15:00 +14°C° 0.2 mm 1 mps 750 mmHg 51%
    16:00 +14°C° 0.3 mm 1 mps 750 mmHg 55%
    17:00 +14°C° 0.3 mm 1 mps 750 mmHg 58%
    18:00 +13°C° 0.3 mm 1 mps 750 mmHg 62%
    19:00 +12°C° 0.2 mm 2 mps 750 mmHg 70%
    20:00 +9°C° 0.2 mm 2 mps 750 mmHg 78%
    21:00 +8°C° 0.2 mm 2 mps 750 mmHg 86%
    22:00 +7°C° 0 mm 2 mps 750 mmHg 87%
    23:00 +7°C° 0 mm 2 mps 750 mmHg 89%

    4 June, Thursday

    Time Temperature Precipitation Wind Pressure Humidity
    00:00 +7°C° 0 mm 2 mps 750 mmHg 90%
    01:00 +6°C° 0.6 mm 2 mps 750 mmHg 92%
    02:00 +6°C° 0.6 mm 2 mps 750 mmHg 93%
    03:00 +7°C° 0.6 mm 1 mps 750 mmHg 95%
    04:00 +5°C° 1 mm 2 mps 750 mmHg 94%
    05:00 +5°C° 1 mm 2 mps 750 mmHg 94%
    06:00 +5°C° 1 mm 2 mps 750 mmHg 93%
    07:00 +5°C° 1.7 mm 2 mps 750 mmHg 93%
    08:00 +5°C° 1.7 mm 2 mps 750 mmHg 93%
    09:00 +5°C° 1.7 mm 2 mps 750 mmHg 93%
    10:00 +6°C° 1 mm 2 mps 750 mmHg 93%
    11:00 +6°C° 1 mm 2 mps 750 mmHg 92%
    12:00 +7°C° 1 mm 2 mps 750 mmHg 91%
    13:00 +8°C° 0.8 mm 2 mps 749 mmHg 89%
    14:00 +9°C° 0.8 mm 2 mps 749 mmHg 88%
    15:00 +9°C° 0.8 mm 2 mps 749 mmHg 86%
    16:00 +9°C° 1.6 mm 2 mps 749 mmHg 88%
    17:00 +9°C° 1.6 mm 2 mps 749 mmHg 91%
    18:00 +9°C° 1.6 mm 2 mps 749 mmHg 93%
    19:00 +8°C° 1.1 mm 3 mps 749 mmHg 93%
    20:00 +8°C° 1.1 mm 3 mps 749 mmHg 94%
    21:00 +7°C° 1.1 mm 4 mps 749 mmHg 94%
    22:00 +7°C° 0.1 mm 4 mps 749 mmHg 94%
    23:00 +7°C° 0.1 mm 4 mps 749 mmHg 94%

    5 June, Friday

    Time Temperature Precipitation Wind Pressure Humidity
    00:00 +6°C° 0.1 mm 4 mps 748 mmHg 93%
    01:00 +6°C° 0.1 mm 4 mps 748 mmHg 94%
    02:00 +7°C° 0.1 mm 3 mps 748 mmHg 96%
    03:00 +7°C° 0.1 mm 3 mps 748 mmHg 97%
    04:00 +7°C° 0.1 mm 3 mps 747 mmHg 96%
    05:00 +7°C° 0.1 mm 3 mps 747 mmHg 96%
    06:00 +8°C° 0.1 mm 3 mps 747 mmHg 96%
    07:00 +8°C° 0.4 mm 3 mps 747 mmHg 96%
    08:00 +8°C° 0.4 mm 3 mps 747 mmHg 95%
    09:00 +9°C° 0.4 mm 3 mps 747 mmHg 95%
    10:00 +10°C° 0.6 mm 3 mps 747 mmHg 92%
    11:00 +12°C° 0.6 mm 2 mps 747 mmHg 88%
    12:00 +13°C° 0.6 mm 2 mps 747 mmHg 84%
    13:00 +14°C° 0.6 mm 2 mps 747 mmHg 77%
    14:00 +15°C° 0.6 mm 2 mps 747 mmHg 71%
    15:00 +16°C° 0.6 mm 2 mps 747 mmHg 64%
    16:00 +17°C° 0 mm 2 mps 747 mmHg 62%
    17:00 +17°C° 0 mm 2 mps 748 mmHg 60%
    18:00 +18°C° 0 mm 1 mps 748 mmHg 58%
    19:00 +15°C° 0.1 mm 2 mps 748 mmHg 68%
    20:00 +14°C° 0.1 mm 2 mps 748 mmHg 77%
    21:00 +12°C° 0.1 mm 2 mps 748 mmHg 87%
    22:00 +10°C° 0 mm 2 mps 748 mmHg 90%
    23:00 +9°C° 0 mm 2 mps 748 mmHg 94%

    6 June, Saturday

    Time Temperature Precipitation Wind Pressure Humidity
    00:00 +9°C° 0 mm 2 mps 748 mmHg 97%
    01:00 +8°C° 0 mm 2 mps 748 mmHg 97%
    02:00 +8°C° 0 mm 2 mps 748 mmHg 98%
    03:00 +8°C° 0 mm 2 mps 748 mmHg 98%
    04:00 +8°C° 0 mm 2 mps 748 mmHg 97%
    05:00 +9°C° 0 mm 2 mps 748 mmHg 96%
    06:00 +10°C° 0 mm 2 mps 749 mmHg 95%
    07:00 +12°C° 0.1 mm 2 mps 749 mmHg 93%
    08:00 +11°C° 0.1 mm 3 mps 749 mmHg 91%
    09:00 +12°C° 0.1 mm 3 mps 750 mmHg 89%
    10:00 +12°C° 0.2 mm 3 mps 750 mmHg 89%
    11:00 +11°C° 0.2 mm 4 mps 750 mmHg 88%
    12:00 +11°C° 0.2 mm 4 mps 750 mmHg 87%
    13:00 +12°C° 0 mm 4 mps 751 mmHg 76%
    14:00 +14°C° 0 mm 4 mps 751 mmHg 65%
    15:00 +15°C° 0 mm 4 mps 751 mmHg 54%
    16:00 +17°C° 0 mm 4 mps 751 mmHg 53%
    17:00 +17°C° 0 mm 3 mps 751 mmHg 52%
    18:00 +18°C° 0 mm 3 mps 752 mmHg 51%
    19:00 +16°C° 0 mm 3 mps 752 mmHg 56%
    20:00 +14°C° 0 mm 3 mps 752 mmHg 61%
    21:00 +12°C° 0 mm 3 mps 752 mmHg 65%
    22:00 +12°C° 0 mm 2 mps 752 mmHg 69%
    23:00 +10°C° 0 mm 2 mps 753 mmHg 72%
    Show more